KB9ZGZ Weather Reports


Display with metric or nautical units.
time (UTC)temp
F
wind
direction
speed
MPH
gust
MPH
rain 1hr
in
rain 24hr
in
rain mn
in
humidity
%
barometer
mb
20260504081516 60 85 2.0 0.0 0.00 0.00 0.00 77 1002.1
20260504044519 62 238 1.0 0.0 0.00 0.00 0.00 69 1003.8
20260504043015 63 238 1.0 0.0 0.00 0.00 0.00 69 1004.1
20260504041507 63 238 0.0 0.0 0.00 0.00 0.00 69 1004.0
20260504040008 63 238 1.0 0.0 0.00 0.00 0.00 69 1004.4
20260504034506 62 238 1.0 0.0 0.00 0.00 0.00 71 1004.3
20260504033006 62 238 0.0 0.0 0.00 0.00 0.00 72 1004.7
20260504031503 63 238 1.0 0.0 0.00 0.00 0.00 71 1004.7
20260504030005 63 238 0.0 0.0 0.00 0.00 0.00 72 1004.6
20260504024505 63 238 1.0 0.0 0.00 0.00 0.00 71 1004.3
20260504023001 63 238 1.0 0.0 0.00 0.00 0.00 71 1004.4
20260504021559 63 238 0.0 0.0 0.00 0.00 0.00 70 1004.5
20260504020132 64 238 0.0 0.0 0.00 0.00 0.00 69 1004.1
20260504014605 64 238 0.0 0.0 0.00 0.00 0.00 66 1004.2
20260504013116 65 238 0.0 0.0 0.00 0.00 0.00 66 1003.9
20260504011552 66 238 0.0 0.0 0.00 0.00 0.00 62 1004.0
20260504010053 67 238 0.0 0.0 0.00 0.00 0.00 59 1003.8
20260504004620 67 238 0.0 0.0 0.00 0.00 0.00 59 1003.9
20260504003059 68 238 0.0 0.0 0.00 0.00 0.00 59 1003.7
20260504001519 70 238 1.0 0.0 0.00 0.00 0.00 55 1004.0
20260504000019 71 238 1.0 0.0 0.00 0.00 0.00 50 1004.0
20260503234516 72 187 1.0 0.0 0.00 0.00 0.00 48 1004.0
20260503233021 72 102 1.0 0.0 0.00 0.00 0.00 46 1004.1
20260503231519 72 102 2.0 0.0 0.00 0.00 0.00 45 1003.9
20260503230014 73 89 3.0 0.0 0.00 0.00 0.00 45 1003.9
20260503224511 73 104 2.0 0.0 0.00 0.00 0.00 44 1004.2
20260503223010 73 65 5.0 0.0 0.00 0.00 0.00 43 1004.3
20260503221510 73 111 3.0 0.0 0.00 0.00 0.00 44 1004.4
20260503220007 73 81 4.0 0.0 0.00 0.00 0.00 42 1004.5
20260503214505 73 203 4.0 0.0 0.00 0.00 0.00 41 1004.5
20260503213007 73 86 4.0 0.0 0.00 0.00 0.00 43 1004.8
20260503211558 72 336 4.0 0.0 0.00 0.00 0.00 42 1005.1
20260503210057 71 123 4.0 0.0 0.00 0.00 0.00 43 1005.0
20260503204523 70 90 5.0 0.0 0.00 0.00 0.00 43 1005.5
20260503203041 69 70 4.0 0.0 0.00 0.00 0.00 44 1005.6
20260503201517 69 120 4.0 0.0 0.00 0.00 0.00 46 1005.9
20260503200014 68 123 4.0 0.0 0.00 0.00 0.00 47 1006.2
20260503194526 67 123 4.0 0.0 0.00 0.00 0.00 46 1006.1
20260503193011 67 142 5.0 0.0 0.00 0.00 0.00 45 1006.6
20260503191507 66 112 4.0 0.0 0.00 0.00 0.00 46 1006.5
20260503190004 66 98 5.0 0.0 0.00 0.00 0.00 45 1006.7
20260503184502 65 136 4.0 0.0 0.00 0.00 0.00 48 1006.7
20260503183001 65 61 5.0 0.0 0.00 0.00 0.00 48 1007.2
20260503181602 64 100 3.0 0.0 0.00 0.00 0.00 49 1007.7
20260503180056 64 100 6.0 0.0 0.00 0.00 0.00 48 1007.9
20260503174552 64 76 6.0 0.0 0.00 0.00 0.00 47 1008.3
20260503173051 64 80 6.0 0.0 0.00 0.00 0.00 49 1009.5
20260503171549 64 100 5.0 0.0 0.00 0.00 0.00 52 1010.2